Regional Weather Roundup
Issued by NWS Goodland, KS

Home | Current Version | Previous Version | Graphics & Text | Print | Product List | Glossary Off
Versions: 1 2 3 4 5 6 7 8 9 10 11 12 13 14 15 16 17 18 19 20 21 22 23 24 25 26 27 28 29 30 31 32 33 34 35 36 37 38 39 40 41 42 43 44 45 46 47 48 49 50

000
ASUS43 KGLD 251259
RWRGLD

GOODLAND FORECAST AREA HOURLY WEATHER ROUNDUP
NATIONAL WEATHER SERVICE GOODLAND KS
700 AM MDT TUE APR 25 2017

...OFFICIAL OBSERVATIONS...

CITY           SKY/WX    TMP DP  RH WIND       PRES   REMARKS
GOODLAND KS    CLOUDY    47  42  83 N20       29.55S
HILL CITY KS   CLOUDY    50  42  74 N9        29.51R
IMPERIAL NEB   LGT RAIN  46  44  93 N8        29.59R
MCCOOK NEB     CLOUDY    48  46  93 N14       29.56R
AKRON CO       CLOUDY    40  38  93 SW3       29.55R
BURLINGTON CO  NOT AVBL
LIMON CO       CLOUDY    39  38  96 CALM      29.58R
$$

...UNOFFICIAL OBSERVATIONS...

CITY           SKY/WX    TMP DP  RH WIND       PRES   REMARKS
LENORA KS        N/A     48  32  54 MISG        N/A
NORTON KS      CLOUDY    48  39  71 NW13      29.53R
SHARON SPRINGS   N/A     48  43  84 N16G24      N/A
TRENTON NEB      N/A     46  32  58 N6          N/A
KIT CARSON CO    N/A     46  40  80 MISG        N/A
YUMA CO        CLOUDY    43  41  93 E5        29.54F
$$




USA.gov is the U.S. government's official web portal to all federal, state and local government web resources and services.